Location: Colonia Mina de C?rbuni
(46.1667°N, 22.7167°E)
Time: 06:39:11
(UTC+00:00)

SKYMED 2 - Pass Details

Date: 04 February 2023
Orbit: 621 x 623 km, 97.9° (Epoch: 21 March)

Event Time Altitude Azimuth Distance (km) Brightness Sun altitude
Rises 16:35:01 0° 14° (NNE) 2,918 6.7 -10.2°
Reaches altitude 10° 16:37:13 10° 16° (NNE) 2,006 5.9 -10.6°
Maximum altitude 16:41:35 78° 103° (ESE) 644 3.5 -11.3°
Drops below altitude 10° 16:45:55 10° 190° (S) 1,988 6.4 -12.1°
Sets 16:48:06 0° 191° (SSW) 2,889 7.3 -12.4°
